Weather History for Blytheville Muni Airport, AR

Change the Weather History Date:

Tuesday, October 1, 2013

  Actual Average Record
Temperature  
Mean Temperature 74 °F -  
Max Temperature 81 °F 80 °F 99 °F (1953)
Min Temperature 66 °F 56 °F 40 °F (1939)
Cooling Degree Days 8    
Growing Degree Days 24 (Base 50)    
Moisture  
Dew Point 67 °F    
Average Humidity 85    
Maximum Humidity 94    
Minimum Humidity 67    
Precipitation  
Precipitation 0.00 in - - ()
Sea Level Pressure  
Sea Level Pressure 30.02 in    
Wind  
Wind Speed 6 mph (South)    
Max Wind Speed 9 mph    
Max Gust Speed -    
Visibility 10 miles    
Events Rain    
Averages and records for this station are not official NWS values.
T = Trace of Precipitation, MM = Missing Value Source: NWS Daily Summary

Daily Weather History Graph

Daily Weather History Graph

Search for Another Location

Airport:

Trip Planner

Search our weather history database for the weather conditions in past years. The results will help you decide how hot, cold, wet, or windy it might be!

Date:

Astronomy

Oct. 01, 2013 Rise Set
Actual Time 6:54 AM CDT 6:42 PM CDT
Civil Twilight 6:29 AM CDT 7:08 PM CDT
Nautical Twilight 5:59 AM CDT 7:37 PM CDT
Astronomical Twilight 5:29 AM CDT 8:07 PM CDT
Moon 3:34 AM CDT (10/1) 4:41 PM CDT (10/1)
Length of Visible Light 12h 39m
Length of Day
11h 48m
Waning Crescent, 12% of the Moon is Illuminated
Oct 1
Waning Crescent
Oct 4
New
Oct 11
First Quarter
Oct 18
Full
Oct 26
Last Quarter

Hourly Weather History & Observations

Time (CDT) Temp. Heat Index Dew Point Humidity Pressure Visibility Wind Dir Wind Speed Gust Speed Precip Events Conditions
12:53 AM 66.9 °F - 64.9 °F 93% 29.97 in 10.0 mi SSE 5.8 mph - N/A   Overcast
1:53 AM 66.9 °F - 64.9 °F 93% 29.96 in 10.0 mi South 6.9 mph - N/A   Overcast
2:53 AM 66.9 °F - 64.9 °F 93% 29.96 in 10.0 mi SSE 6.9 mph - N/A   Mostly Cloudy
3:53 AM 66.0 °F - 64.0 °F 93% 29.96 in 10.0 mi South 8.1 mph - N/A   Mostly Cloudy
4:53 AM 66.9 °F - 64.9 °F 93% 29.98 in 10.0 mi SE 3.5 mph - N/A   Overcast
5:23 AM 66.2 °F - 64.4 °F 94% 30.00 in 10.0 mi SSE 5.8 mph - N/A   Overcast
5:39 AM 66.2 °F - 64.4 °F 94% 30.01 in 10.0 mi SSE 4.6 mph - N/A   Overcast
5:53 AM 66.9 °F - 64.9 °F 93% 30.01 in 10.0 mi SSE 4.6 mph - 0.00 in Rain Light Rain
6:53 AM 66.9 °F - 64.9 °F 93% 30.02 in 10.0 mi SSE 4.6 mph - 0.00 in   Overcast
7:29 AM 66.2 °F - 64.4 °F 94% 30.03 in 10.0 mi SSE 5.8 mph - 0.00 in   Unknown
7:53 AM 66.9 °F - 64.9 °F 93% 30.03 in 10.0 mi SSE 4.6 mph - 0.00 in   Overcast
8:53 AM 69.1 °F - 66.0 °F 90% 30.04 in 10.0 mi South 5.8 mph - N/A   Overcast
9:35 AM 71.6 °F - 66.2 °F 83% 30.05 in 10.0 mi South 8.1 mph - N/A   Overcast
9:53 AM 71.1 °F - 66.9 °F 87% 30.05 in 10.0 mi South 9.2 mph - N/A   Overcast
10:53 AM 72.0 °F - 68.0 °F 87% 30.06 in 10.0 mi SSW 6.9 mph - N/A   Overcast
11:20 AM 73.4 °F - 69.8 °F 88% 30.06 in 10.0 mi SSW 8.1 mph - N/A   Overcast
11:53 AM 75.0 °F - 69.1 °F 82% 30.05 in 10.0 mi SW 5.8 mph - N/A   Overcast
12:53 PM 75.9 °F - 70.0 °F 82% 30.04 in 10.0 mi South 4.6 mph - N/A   Overcast
1:17 PM 77.0 °F - 69.8 °F 78% 30.04 in 10.0 mi SSW 6.9 mph - N/A   Overcast
1:53 PM 79.0 °F - 70.0 °F 74% 30.02 in 10.0 mi SW 6.9 mph - N/A   Overcast
2:35 PM 78.8 °F - 69.8 °F 74% 30.01 in 10.0 mi SW 6.9 mph - N/A   Overcast
2:53 PM 80.1 °F 82.9 °F 69.1 °F 69% 30.01 in 10.0 mi South 4.6 mph - N/A   Overcast
3:53 PM 80.1 °F 83.2 °F 70.0 °F 71% 30.00 in 10.0 mi Calm Calm - 0.00 in   Scattered Clouds
4:53 PM 81.0 °F 84.1 °F 69.1 °F 67% 29.99 in 10.0 mi SW 4.6 mph - N/A   Clear
5:53 PM 80.1 °F 82.9 °F 69.1 °F 69% 29.99 in 10.0 mi South 5.8 mph - N/A   Clear
6:53 PM 77.0 °F - 70.0 °F 79% 30.00 in 10.0 mi South 3.5 mph - N/A   Clear
7:53 PM 75.0 °F - 69.1 °F 82% 30.02 in 10.0 mi Calm Calm - N/A   Partly Cloudy
8:53 PM 73.9 °F - 70.0 °F 87% 30.03 in 10.0 mi SE 3.5 mph - N/A   Scattered Clouds
9:53 PM 72.0 °F - 69.1 °F 91% 30.04 in 10.0 mi SE 4.6 mph - N/A   Partly Cloudy
10:53 PM 75.0 °F - 69.1 °F 82% 30.04 in 10.0 mi South 5.8 mph - N/A   Overcast
11:53 PM 72.0 °F - 69.1 °F 91% 30.04 in 10.0 mi South 6.9 mph - 0.00 in   Clear